Tyler, TX

8:23 PM CDT on May 27, 2017 (GMT -0500)
Tyler Pounds

Weather History for KTYR - October, 2013

Change the Weather History Date:

Sunday, October 13, 2013

  Actual Average Record
Temperature  
Mean Temperature 71 °F 68 °F  
Max Temperature 73 °F 79 °F 94 °F (1963)
Min Temperature 68 °F 57 °F 33 °F (1977)
Degree Days  
Heating Degree Days 0 1  
Month to date heating degree days 1 13  
Since 1 July heating degree days 1 18  
Cooling Degree Days 6 4  
Month to date cooling degree days 104 74  
Year to date cooling degree days 2720 2338  
Growing Degree Days 20 (Base 50)    
Moisture  
Dew Point 67 °F    
Average Humidity 88    
Maximum Humidity 97    
Minimum Humidity 79    
Precipitation  
Precipitation 0.00 in 0.16 in 3.94 in (1943)
Month to date precipitation 0.94 1.80  
Year to date precipitation 27.18 34.40  
Snow  
Snow 0.00 in - - ()
Month to date snowfall 0.0  
Since 1 July snowfall 0.0  
Since 1 September snowfall 0.0  
Snow Depth 0.00 in    
Sea Level Pressure  
Sea Level Pressure 30.15 in    
Wind  
Wind Speed 6 mph (ENE)    
Max Wind Speed 12 mph    
Max Gust Speed 15 mph    
Visibility 10 miles    
Events      
T = Trace of Precipitation, MM = Missing Value Source: NWS Daily Summary

Daily Weather History Graph

Daily Weather History Graph

Search for Another Location

Airport or City:

Trip Planner

Search our weather history database for the weather conditions in past years. The results will help you decide how hot, cold, wet, or windy it might be!

Date:

Astronomy

Oct. 13, 2013 Rise Set
Actual Time 7:24 AM CDT 6:50 PM CDT
Civil Twilight 6:59 AM CDT 7:15 PM CDT
Nautical Twilight 6:30 AM CDT 7:44 PM CDT
Astronomical Twilight 6:02 AM CDT 8:12 PM CDT
Moon 3:26 PM CDT (10/13) 1:53 AM CDT (10/13)
Length of Visible Light 12h 16m
Length of Day
11h 26m
Waxing Gibbous, 69% of the Moon is Illuminated
Oct 13
Waxing Gibbous
Oct 18
Full
Oct 26
Last Quarter
Nov 3
New
Nov 9
First Quarter

Hourly Weather History & Observations

Time (CDT) Temp. Dew Point Humidity Pressure Visibility Wind Dir Wind Speed Gust Speed Precip Events Conditions
12:53 AM 71.1 °F 69.1 °F 93% 30.05 in 10.0 mi SE 8.1 mph - N/A   Clear
1:53 AM 70.0 °F 68.0 °F 93% 30.08 in 10.0 mi South 3.5 mph - 0.01 in   Clear
2:53 AM 69.1 °F 68.0 °F 96% 30.09 in 10.0 mi Calm Calm - N/A   Clear
3:33 AM 69.8 °F 66.2 °F 88% 30.11 in 10.0 mi Calm Calm - N/A   Scattered Clouds
3:53 AM 69.1 °F 66.9 °F 93% 30.09 in 10.0 mi Calm Calm - N/A   Partly Cloudy
4:53 AM 69.1 °F 66.9 °F 93% 30.09 in 10.0 mi Calm Calm - N/A   Clear
5:31 AM 68.0 °F 66.2 °F 94% 30.11 in 9.0 mi ENE 3.5 mph - N/A   Partly Cloudy
5:53 AM 68.0 °F 66.9 °F 96% 30.10 in 9.0 mi NE 5.8 mph - N/A   Scattered Clouds
6:06 AM 69.8 °F 66.2 °F 88% 30.13 in 9.0 mi NE 4.6 mph - N/A   Mostly Cloudy
6:53 AM 69.1 °F 68.0 °F 96% 30.13 in 9.0 mi East 5.8 mph - N/A   Overcast
7:53 AM 69.1 °F 68.0 °F 96% 30.16 in 9.0 mi ENE 6.9 mph - N/A   Overcast
8:53 AM 70.0 °F 68.0 °F 93% 30.19 in 10.0 mi ENE 9.2 mph - N/A   Overcast
9:01 AM 69.8 °F 68.0 °F 94% 30.20 in 10.0 mi ENE 9.2 mph - N/A   Overcast
9:53 AM 71.1 °F 68.0 °F 90% 30.21 in 10.0 mi ENE 6.9 mph - N/A   Overcast
10:53 AM 71.1 °F 68.0 °F 90% 30.21 in 10.0 mi ENE 6.9 mph - N/A   Overcast
11:53 AM 72.0 °F 66.9 °F 84% 30.20 in 10.0 mi East 9.2 mph - N/A   Overcast
12:02 PM 71.6 °F 66.2 °F 83% 30.22 in 10.0 mi ENE 9.2 mph - N/A   Overcast
12:53 PM 73.0 °F 66.9 °F 81% 30.20 in 10.0 mi East 8.1 mph - N/A   Overcast
1:53 PM 73.0 °F 66.9 °F 81% 30.16 in 10.0 mi ENE 10.4 mph - N/A   Overcast
2:53 PM 72.0 °F 66.9 °F 84% 30.15 in 10.0 mi ENE 9.2 mph - N/A   Overcast
3:53 PM 72.0 °F 66.9 °F 84% 30.14 in 10.0 mi ENE 9.2 mph - N/A   Overcast
4:29 PM 73.4 °F 66.2 °F 78% 30.14 in 10.0 mi East 6.9 mph - N/A   Overcast
4:53 PM 73.0 °F 66.9 °F 81% 30.13 in 10.0 mi ENE 4.6 mph - N/A   Overcast
5:53 PM 73.0 °F 66.9 °F 81% 30.14 in 10.0 mi ENE 4.6 mph - N/A   Overcast
6:33 PM 73.4 °F 66.2 °F 78% 30.15 in 10.0 mi East 5.8 mph - N/A   Overcast
6:53 PM 72.0 °F 66.9 °F 84% 30.14 in 10.0 mi East 9.2 mph - N/A   Overcast
7:10 PM 73.4 °F 66.2 °F 78% 30.15 in 10.0 mi East 6.9 mph - N/A   Overcast
7:53 PM 73.0 °F 66.9 °F 81% 30.15 in 10.0 mi East 6.9 mph - N/A   Overcast
8:08 PM 73.4 °F 66.2 °F 78% 30.16 in 10.0 mi East 6.9 mph - N/A   Overcast
8:53 PM 72.0 °F 66.9 °F 84% 30.16 in 10.0 mi East 8.1 mph - N/A   Mostly Cloudy
9:44 PM 71.6 °F 66.2 °F 83% 30.18 in 10.0 mi ENE 6.9 mph - N/A   Mostly Cloudy
9:53 PM 71.1 °F 66.9 °F 87% 30.17 in 10.0 mi ENE 6.9 mph - N/A   Overcast
10:53 PM 71.1 °F 66.9 °F 87% 30.18 in 10.0 mi NE 5.8 mph - N/A   Overcast
11:53 PM 70.0 °F 66.9 °F 90% 30.16 in 10.0 mi ENE 5.8 mph - N/A   Overcast